| time (UTC) | temp F | wind direction | speed MPH | gust MPH | rain 1hr in | rain 24hr in | rain mn in | humidity % | barometer mb |
| 20260506021006 | 45 | 360 | 0.0 | 2.0 | 0.00 | 0.00 | 0.00 | 75 | 1015.0 |
| 20260506020508 | 44 | 360 | 0.0 | 2.0 | 0.00 | 0.00 | 0.00 | 74 | 1015.1 |
| 20260506020020 | 45 | 360 | 0.0 | 2.0 | 0.00 | 0.00 | 0.00 | 74 | 1015.1 |
| 20260506015508 | 45 | 360 | 0.0 | 2.0 | 0.00 | 0.00 | 0.00 | 74 | 1015.1 |
| 20260506015010 | 45 | 360 | 1.0 | 2.0 | 0.00 | 0.00 | 0.00 | 73 | 1015.1 |
| 20260506014528 | 45 | 360 | 0.0 | 4.0 | 0.00 | 0.00 | 0.00 | 73 | 1015.1 |
| 20260506014007 | 45 | 360 | 2.0 | 4.0 | 0.00 | 0.00 | 0.00 | 73 | 1015.2 |
| 20260506013509 | 45 | 360 | 2.0 | 6.0 | 0.00 | 0.00 | 0.00 | 72 | 1015.2 |
| 20260506013028 | 45 | 360 | 1.0 | 6.0 | 0.00 | 0.00 | 0.00 | 72 | 1015.2 |
| 20260506012510 | 45 | 360 | 1.0 | 6.0 | 0.00 | 0.00 | 0.00 | 72 | 1015.3 |
| 20260506012009 | 45 | 360 | 2.0 | 5.0 | 0.00 | 0.00 | 0.00 | 72 | 1015.3 |
| 20260506011525 | 45 | 360 | 1.0 | 5.0 | 0.00 | 0.00 | 0.00 | 72 | 1015.2 |
| 20260506011007 | 45 | 360 | 1.0 | 6.0 | 0.00 | 0.00 | 0.00 | 72 | 1015.2 |
| 20260506010508 | 45 | 360 | 1.0 | 6.0 | 0.00 | 0.00 | 0.00 | 72 | 1015.2 |
| 20260506010020 | 46 | 360 | 3.0 | 6.0 | 0.00 | 0.00 | 0.00 | 73 | 1015.2 |
| 20260506005509 | 46 | 360 | 1.0 | 5.0 | 0.00 | 0.00 | 0.00 | 73 | 1015.2 |
| 20260506005007 | 46 | 360 | 1.0 | 6.0 | 0.00 | 0.00 | 0.00 | 74 | 1015.2 |
| 20260506004522 | 46 | 360 | 1.0 | 6.0 | 0.00 | 0.00 | 0.00 | 75 | 1015.2 |
| 20260506004010 | 46 | 360 | 1.0 | 5.0 | 0.00 | 0.00 | 0.00 | 76 | 1015.2 |
| 20260506003511 | 46 | 360 | 1.0 | 5.0 | 0.00 | 0.00 | 0.00 | 77 | 1015.2 |
| 20260506003028 | 46 | 360 | 1.0 | 5.0 | 0.00 | 0.00 | 0.00 | 77 | 1015.2 |
| 20260506002507 | 46 | 360 | 2.0 | 5.0 | 0.00 | 0.00 | 0.00 | 77 | 1015.2 |
| 20260506002010 | 46 | 360 | 1.0 | 8.0 | 0.00 | 0.00 | 0.00 | 77 | 1015.2 |
| 20260506001533 | 46 | 360 | 2.0 | 8.0 | 0.00 | 0.00 | 0.00 | 76 | 1015.3 |
| 20260506001009 | 46 | 360 | 1.0 | 5.0 | 0.00 | 0.00 | 0.00 | 76 | 1015.4 |
| 20260506000512 | 47 | 360 | 1.0 | 5.0 | 0.00 | 0.00 | 0.00 | 75 | 1015.4 |
| 20260506000027 | 47 | 360 | 2.0 | 5.0 | 0.00 | 0.00 | 0.00 | 74 | 1015.3 |
| 20260505235507 | 47 | 360 | 1.0 | 5.0 | 0.00 | 0.00 | 0.00 | 75 | 1015.3 |
| 20260505235007 | 47 | 360 | 2.0 | 5.0 | 0.00 | 0.00 | 0.00 | 76 | 1015.3 |
| 20260505234528 | 47 | 360 | 1.0 | 3.0 | 0.00 | 0.00 | 0.00 | 76 | 1015.3 |
| 20260505234007 | 47 | 360 | 1.0 | 5.0 | 0.00 | 0.00 | 0.00 | 76 | 1015.3 |
| 20260505233508 | 47 | 360 | 1.0 | 4.0 | 0.00 | 0.00 | 0.00 | 75 | 1015.4 |
| 20260505233025 | 47 | 360 | 2.0 | 4.0 | 0.00 | 0.00 | 0.00 | 76 | 1015.3 |
| 20260505232507 | 47 | 360 | 0.0 | 2.0 | 0.00 | 0.00 | 0.00 | 76 | 1015.4 |
| 20260505232009 | 47 | 360 | 0.0 | 2.0 | 0.00 | 0.00 | 0.00 | 76 | 1015.3 |
| 20260505231525 | 47 | 360 | 0.0 | 2.0 | 0.00 | 0.00 | 0.00 | 76 | 1015.3 |
| 20260505231007 | 47 | 360 | 0.0 | 4.0 | 0.00 | 0.00 | 0.00 | 76 | 1015.4 |
| 20260505230507 | 48 | 360 | 1.0 | 5.0 | 0.00 | 0.00 | 0.00 | 75 | 1015.3 |
| 20260505230046 | 48 | 360 | 0.0 | 5.0 | 0.00 | 0.00 | 0.00 | 75 | 1015.4 |
| 20260505225511 | 48 | 360 | 2.0 | 4.0 | 0.00 | 0.00 | 0.00 | 75 | 1015.5 |
| 20260505225009 | 48 | 360 | 0.0 | 9.0 | 0.00 | 0.00 | 0.00 | 74 | 1015.5 |
| 20260505224528 | 48 | 360 | 0.0 | 9.0 | 0.00 | 0.00 | 0.00 | 74 | 1015.4 |
| 20260505224008 | 48 | 360 | 2.0 | 9.0 | 0.00 | 0.00 | 0.00 | 74 | 1015.3 |
| 20260505223509 | 48 | 360 | 2.0 | 5.0 | 0.00 | 0.00 | 0.00 | 73 | 1015.3 |
| 20260505223023 | 48 | 360 | 1.0 | 5.0 | 0.00 | 0.00 | 0.00 | 73 | 1015.2 |
| 20260505222510 | 48 | 360 | 1.0 | 10.0 | 0.00 | 0.00 | 0.00 | 73 | 1015.3 |
| 20260505222011 | 48 | 360 | 1.0 | 10.0 | 0.00 | 0.00 | 0.00 | 73 | 1015.2 |
| 20260505221525 | 49 | 360 | 1.0 | 10.0 | 0.00 | 0.00 | 0.00 | 73 | 1015.2 |
| 20260505221019 | 49 | 360 | 1.0 | 4.0 | 0.00 | 0.00 | 0.00 | 72 | 1015.3 |
| 20260505220508 | 49 | 360 | 1.0 | 5.0 | 0.00 | 0.00 | 0.00 | 72 | 1015.3 |
| 20260505220031 | 49 | 360 | 0.0 | 8.0 | 0.00 | 0.00 | 0.00 | 72 | 1015.2 |
| 20260505215507 | 49 | 360 | 2.0 | 10.0 | 0.00 | 0.00 | 0.00 | 72 | 1015.2 |
| 20260505215007 | 49 | 360 | 2.0 | 10.0 | 0.00 | 0.00 | 0.00 | 74 | 1015.2 |
| 20260505214527 | 49 | 360 | 1.0 | 8.0 | 0.00 | 0.00 | 0.00 | 77 | 1015.1 |
| 20260505214012 | 49 | 360 | 1.0 | 8.0 | 0.00 | 0.00 | 0.00 | 77 | 1015.1 |
| 20260505213511 | 49 | 360 | 1.0 | 6.0 | 0.00 | 0.00 | 0.00 | 77 | 1015.2 |
| 20260505213023 | 49 | 360 | 1.0 | 6.0 | 0.00 | 0.00 | 0.00 | 77 | 1015.2 |
| 20260505212507 | 49 | 360 | 2.0 | 6.0 | 0.00 | 0.00 | 0.00 | 77 | 1015.2 |
| 20260505212012 | 50 | 360 | 1.0 | 5.0 | 0.00 | 0.00 | 0.00 | 76 | 1015.1 |
| 20260505211524 | 50 | 360 | 2.0 | 10.0 | 0.00 | 0.00 | 0.00 | 77 | 1015.1 |
| 20260505211009 | 50 | 360 | 3.0 | 10.0 | 0.00 | 0.00 | 0.00 | 77 | 1015.1 |
| 20260505210510 | 50 | 360 | 0.0 | 8.0 | 0.00 | 0.00 | 0.00 | 76 | 1015.1 |
| 20260505210026 | 50 | 360 | 1.0 | 8.0 | 0.00 | 0.00 | 0.00 | 76 | 1015.0 |
| 20260505205507 | 50 | 360 | 2.0 | 5.0 | 0.00 | 0.00 | 0.00 | 76 | 1015.0 |
| 20260505205007 | 50 | 360 | 1.0 | 9.0 | 0.00 | 0.00 | 0.00 | 75 | 1015.0 |
| 20260505204511 | 50 | 360 | 1.0 | 9.0 | 0.00 | 0.00 | 0.00 | 75 | 1015.0 |
| 20260505204005 | 50 | 360 | 1.0 | 4.0 | 0.00 | 0.00 | 0.00 | 75 | 1014.9 |
| 20260505203505 | 51 | 360 | 2.0 | 6.0 | 0.00 | 0.00 | 0.00 | 75 | 1014.9 |
| 20260505203019 | 51 | 360 | 1.0 | 6.0 | 0.00 | 0.00 | 0.00 | 75 | 1014.9 |
| 20260505202505 | 51 | 360 | 0.0 | 5.0 | 0.00 | 0.00 | 0.00 | 74 | 1014.9 |
| 20260505202007 | 51 | 360 | 2.0 | 9.0 | 0.00 | 0.00 | 0.00 | 74 | 1014.9 |
| 20260505201518 | 51 | 360 | 2.0 | 9.0 | 0.00 | 0.00 | 0.00 | 74 | 1014.8 |
| 20260505201005 | 52 | 360 | 2.0 | 9.0 | 0.00 | 0.00 | 0.00 | 74 | 1014.8 |
| 20260505200506 | 52 | 360 | 2.0 | 9.0 | 0.00 | 0.00 | 0.00 | 74 | 1014.8 |
| 20260505200019 | 52 | 351 | 1.0 | 9.0 | 0.00 | 0.00 | 0.00 | 72 | 1014.8 |
| 20260505195506 | 52 | 41 | 2.0 | 10.0 | 0.00 | 0.00 | 0.00 | 70 | 1014.6 |
| 20260505195006 | 53 | 360 | 3.0 | 10.0 | 0.00 | 0.00 | 0.00 | 67 | 1014.6 |
| 20260505194516 | 53 | 360 | 0.0 | 5.0 | 0.00 | 0.00 | 0.00 | 64 | 1014.5 |
| 20260505194011 | 53 | 321 | 0.0 | 5.0 | 0.00 | 0.00 | 0.00 | 63 | 1014.4 |
| 20260505193506 | 53 | 18 | 2.0 | 5.0 | 0.00 | 0.00 | 0.00 | 63 | 1014.4 |
| 20260505193015 | 53 | 9 | 1.0 | 5.0 | 0.00 | 0.00 | 0.00 | 64 | 1014.4 |
| 20260505192509 | 53 | 63 | 1.0 | 4.0 | 0.00 | 0.00 | 0.00 | 64 | 1014.3 |
| 20260505192006 | 53 | 44 | 0.0 | 5.0 | 0.00 | 0.00 | 0.00 | 64 | 1014.4 |
| 20260505191518 | 53 | 36 | 0.0 | 5.0 | 0.00 | 0.00 | 0.00 | 64 | 1014.3 |
| 20260505191008 | 53 | 9 | 1.0 | 4.0 | 0.00 | 0.00 | 0.00 | 63 | 1014.2 |
| 20260505190506 | 53 | 332 | 2.0 | 5.0 | 0.00 | 0.00 | 0.00 | 63 | 1014.2 |
| 20260505190018 | 54 | 58 | 1.0 | 5.0 | 0.00 | 0.00 | 0.00 | 63 | 1014.2 |
| 20260505185510 | 54 | 332 | 2.0 | 5.0 | 0.00 | 0.00 | 0.00 | 62 | 1014.1 |
| 20260505185006 | 54 | 352 | 1.0 | 4.0 | 0.00 | 0.00 | 0.00 | 63 | 1014.0 |
| 20260505184520 | 54 | 304 | 1.0 | 4.0 | 0.00 | 0.00 | 0.00 | 62 | 1014.0 |
| 20260505184008 | 54 | 352 | 0.0 | 6.0 | 0.00 | 0.00 | 0.00 | 61 | 1014.0 |
| 20260505183506 | 54 | 269 | 1.0 | 6.0 | 0.00 | 0.00 | 0.00 | 61 | 1014.0 |
| 20260505183017 | 54 | 301 | 2.0 | 5.0 | 0.00 | 0.00 | 0.00 | 60 | 1013.9 |
| 20260505182509 | 54 | 336 | 1.0 | 5.0 | 0.00 | 0.00 | 0.00 | 60 | 1013.9 |
| 20260505182007 | 55 | 299 | 0.0 | 5.0 | 0.00 | 0.00 | 0.00 | 62 | 1013.9 |
| 20260505181517 | 55 | 45 | 0.0 | 5.0 | 0.00 | 0.00 | 0.00 | 61 | 1013.9 |
| 20260505181006 | 55 | 307 | 2.0 | 5.0 | 0.00 | 0.00 | 0.00 | 62 | 1013.9 |
| 20260505180509 | 55 | 60 | 0.0 | 5.0 | 0.00 | 0.00 | 0.00 | 63 | 1013.8 |
| 20260505180039 | 55 | 306 | 2.0 | 6.0 | 0.00 | 0.00 | 0.00 | 63 | 1013.8 |
| 20260505175507 | 55 | 5 | 2.0 | 6.0 | 0.00 | 0.00 | 0.00 | 62 | 1013.9 |
| 20260505175006 | 55 | 24 | 1.0 | 8.0 | 0.00 | 0.00 | 0.00 | 62 | 1013.9 |
| 20260505174518 | 55 | 12 | 1.0 | 10.0 | 0.00 | 0.00 | 0.00 | 61 | 1013.9 |
| 20260505174011 | 55 | 32 | 2.0 | 10.0 | 0.00 | 0.00 | 0.00 | 61 | 1013.9 |
| 20260505173506 | 55 | 43 | 2.0 | 4.0 | 0.00 | 0.00 | 0.00 | 60 | 1013.9 |
| 20260505173019 | 56 | 325 | 0.0 | 6.0 | 0.00 | 0.00 | 0.00 | 61 | 1013.9 |
| 20260505172515 | 55 | 64 | 1.0 | 6.0 | 0.00 | 0.00 | 0.00 | 60 | 1013.9 |
| 20260505172014 | 55 | 57 | 1.0 | 5.0 | 0.00 | 0.00 | 0.00 | 61 | 1013.9 |
| 20260505171520 | 55 | 13 | 2.0 | 5.0 | 0.00 | 0.00 | 0.00 | 59 | 1014.0 |
| 20260505171014 | 55 | 15 | 1.0 | 10.0 | 0.00 | 0.00 | 0.00 | 60 | 1014.1 |
| 20260505170510 | 55 | 40 | 0.0 | 10.0 | 0.00 | 0.00 | 0.00 | 61 | 1014.1 |
| 20260505170022 | 56 | 5 | 3.0 | 10.0 | 0.00 | 0.00 | 0.00 | 59 | 1014.1 |
| 20260505165507 | 56 | 309 | 2.0 | 8.0 | 0.00 | 0.00 | 0.00 | 58 | 1014.1 |
| 20260505165008 | 56 | 340 | 1.0 | 8.0 | 0.00 | 0.00 | 0.00 | 59 | 1014.0 |
| 20260505164519 | 56 | 25 | 2.0 | 7.0 | 0.00 | 0.00 | 0.00 | 58 | 1014.0 |
| 20260505164007 | 56 | 327 | 2.0 | 8.0 | 0.00 | 0.00 | 0.00 | 59 | 1014.0 |
| 20260505163509 | 56 | 346 | 3.0 | 8.0 | 0.00 | 0.00 | 0.00 | 58 | 1014.0 |
| 20260505163019 | 56 | 348 | 2.0 | 6.0 | 0.00 | 0.00 | 0.00 | 59 | 1014.0 |
| 20260505162506 | 56 | 320 | 1.0 | 7.0 | 0.00 | 0.00 | 0.00 | 59 | 1013.9 |
| 20260505162007 | 56 | 25 | 2.0 | 7.0 | 0.00 | 0.00 | 0.00 | 59 | 1013.9 |
| 20260505161522 | 56 | 352 | 1.0 | 5.0 | 0.00 | 0.00 | 0.00 | 61 | 1013.9 |
| 20260505161006 | 56 | 321 | 2.0 | 5.0 | 0.00 | 0.00 | 0.00 | 59 | 1014.0 |
| 20260505160507 | 56 | 13 | 1.0 | 5.0 | 0.00 | 0.00 | 0.00 | 60 | 1014.0 |
| 20260505153021 | 57 | 9 | 1.0 | 6.0 | 0.00 | 0.00 | 0.00 | 58 | 1014.0 |
| 20260505152511 | 57 | 42 | 2.0 | 6.0 | 0.00 | 0.00 | 0.00 | 56 | 1014.1 |
| 20260505152011 | 58 | 288 | 0.0 | 5.0 | 0.00 | 0.00 | 0.00 | 54 | 1014.1 |
| 20260505151521 | 58 | 352 | 1.0 | 3.0 | 0.00 | 0.00 | 0.00 | 54 | 1014.0 |
| 20260505151010 | 58 | 40 | 0.0 | 3.0 | 0.00 | 0.00 | 0.00 | 55 | 1014.0 |
| 20260505150507 | 58 | 42 | 0.0 | 8.0 | 0.00 | 0.00 | 0.00 | 53 | 1014.0 |
| 20260505140507 | 58 | 19 | 2.0 | 8.0 | 0.00 | 0.00 | 0.00 | 54 | 1014.2 |
| 20260505125009 | 61 | 280 | 3.0 | 10.0 | 0.00 | 0.00 | 0.00 | 48 | 1014.3 |
| 20260505124526 | 61 | 336 | 2.0 | 4.0 | 0.00 | 0.00 | 0.00 | 50 | 1014.3 |
| 20260505124010 | 60 | 13 | 2.0 | 11.0 | 0.00 | 0.00 | 0.00 | 49 | 1014.2 |
| 20260505123512 | 60 | 39 | 3.0 | 11.0 | 0.00 | 0.00 | 0.00 | 53 | 1014.3 |
| 20260505123032 | 60 | 15 | 2.0 | 7.0 | 0.00 | 0.00 | 0.00 | 55 | 1014.3 |
| 20260505122508 | 58 | 335 | 3.0 | 7.0 | 0.00 | 0.00 | 0.00 | 55 | 1014.4 |
| 20260505122009 | 57 | 352 | 1.0 | 5.0 | 0.00 | 0.00 | 0.00 | 57 | 1014.5 |
| 20260505121526 | 57 | 84 | 2.0 | 5.0 | 0.00 | 0.00 | 0.00 | 56 | 1014.5 |
| 20260505121009 | 58 | 12 | 2.0 | 7.0 | 0.00 | 0.00 | 0.00 | 54 | 1014.5 |
| 20260505120506 | 58 | 348 | 1.0 | 7.0 | 0.00 | 0.00 | 0.00 | 55 | 1014.5 |
| 20260505120027 | 59 | 23 | 1.0 | 7.0 | 0.00 | 0.00 | 0.00 | 55 | 1014.6 |
| 20260505115509 | 58 | 5 | 2.0 | 6.0 | 0.00 | 0.00 | 0.00 | 56 | 1014.6 |
| 20260505115006 | 58 | 281 | 2.0 | 6.0 | 0.00 | 0.00 | 0.00 | 56 | 1014.6 |
| 20260505114517 | 58 | 94 | 1.0 | 4.0 | 0.00 | 0.00 | 0.00 | 56 | 1014.6 |
| 20260505114010 | 58 | 313 | 1.0 | 11.0 | 0.00 | 0.00 | 0.00 | 58 | 1014.6 |
| 20260505113512 | 58 | 9 | 2.0 | 11.0 | 0.00 | 0.00 | 0.00 | 58 | 1014.6 |
| 20260505113004 | 58 | 11 | 2.0 | 9.0 | 0.00 | 0.00 | 0.00 | 59 | 1014.6 |
| 20260505112503 | 58 | 296 | 3.0 | 8.0 | 0.00 | 0.00 | 0.00 | 58 | 1014.6 |
| 20260505112003 | 59 | 55 | 2.0 | 8.0 | 0.00 | 0.00 | 0.00 | 57 | 1014.6 |
| 20260505111516 | 59 | 242 | 1.0 | 8.0 | 0.00 | 0.00 | 0.00 | 57 | 1014.5 |
| 20260505111004 | 60 | 67 | 1.0 | 10.0 | 0.00 | 0.00 | 0.00 | 59 | 1014.5 |
| 20260505110503 | 60 | 304 | 2.0 | 10.0 | 0.00 | 0.00 | 0.00 | 55 | 1014.5 |
| 20260505102006 | 55 | 19 | 2.0 | 9.0 | 0.00 | 0.00 | 0.00 | 62 | 1015.0 |
| 20260505101514 | 55 | 338 | 2.0 | 9.0 | 0.00 | 0.00 | 0.00 | 60 | 1015.0 |
| 20260505101004 | 56 | 306 | 3.0 | 9.0 | 0.00 | 0.00 | 0.00 | 60 | 1014.9 |
| 20260505100504 | 57 | 38 | 1.0 | 9.0 | 0.00 | 0.00 | 0.00 | 58 | 1014.9 |
| 20260505100021 | 57 | 352 | 3.0 | 9.0 | 0.00 | 0.00 | 0.00 | 59 | 1014.9 |
| 20260505095504 | 57 | 19 | 3.0 | 9.0 | 0.00 | 0.00 | 0.00 | 59 | 1014.9 |
| 20260505095004 | 57 | 26 | 2.0 | 7.0 | 0.00 | 0.00 | 0.00 | 58 | 1014.8 |
| 20260505094512 | 56 | 41 | 1.0 | 6.0 | 0.00 | 0.00 | 0.00 | 59 | 1014.9 |
| 20260505094008 | 57 | 346 | 1.0 | 7.0 | 0.00 | 0.00 | 0.00 | 58 | 1014.9 |
| 20260505093507 | 57 | 59 | 1.0 | 11.0 | 0.00 | 0.00 | 0.00 | 55 | 1015.0 |
| 20260505093022 | 58 | 344 | 3.0 | 11.0 | 0.00 | 0.00 | 0.00 | 53 | 1015.0 |
| 20260505092509 | 58 | 342 | 3.0 | 9.0 | 0.00 | 0.00 | 0.00 | 60 | 1014.9 |
| 20260505092006 | 57 | 352 | 3.0 | 9.0 | 0.00 | 0.00 | 0.00 | 59 | 1014.9 |
| 20260505091521 | 56 | 58 | 2.0 | 9.0 | 0.00 | 0.00 | 0.00 | 61 | 1014.9 |
| 20260505091012 | 56 | 73 | 2.0 | 10.0 | 0.00 | 0.00 | 0.00 | 62 | 1014.9 |
| 20260505090503 | 56 | 311 | 2.0 | 12.0 | 0.00 | 0.00 | 0.00 | 58 | 1015.0 |
| 20260505090008 | 58 | 46 | 4.0 | 12.0 | 0.00 | 0.00 | 0.00 | 59 | 1015.0 |
| 20260505085011 | 57 | 291 | 1.0 | 5.0 | 0.00 | 0.00 | 0.00 | 63 | 1014.9 |
| 20260505084528 | 56 | 303 | 1.0 | 5.0 | 0.00 | 0.00 | 0.00 | 63 | 1014.9 |
| 20260505084011 | 56 | 352 | 2.0 | 6.0 | 0.00 | 0.00 | 0.00 | 64 | 1014.9 |
| 20260505083507 | 56 | 42 | 2.0 | 6.0 | 0.00 | 0.00 | 0.00 | 67 | 1015.0 |
| 20260505083025 | 55 | 294 | 2.0 | 8.0 | 0.00 | 0.00 | 0.00 | 66 | 1015.0 |
| 20260505082511 | 55 | 63 | 2.0 | 8.0 | 0.00 | 0.00 | 0.00 | 66 | 1015.0 |
| 20260505082009 | 54 | 21 | 1.0 | 8.0 | 0.00 | 0.00 | 0.00 | 71 | 1015.0 |
| 20260505081527 | 53 | 38 | 2.0 | 6.0 | 0.00 | 0.00 | 0.00 | 72 | 1015.2 |
| 20260505081008 | 53 | 296 | 1.0 | 8.0 | 0.00 | 0.00 | 0.00 | 73 | 1015.2 |
| 20260505080507 | 52 | 327 | 2.0 | 8.0 | 0.00 | 0.00 | 0.00 | 72 | 1015.3 |
| 20260505080024 | 52 | 315 | 1.0 | 6.0 | 0.00 | 0.00 | 0.00 | 74 | 1015.3 |
| 20260505075510 | 51 | 325 | 2.0 | 6.0 | 0.00 | 0.00 | 0.00 | 75 | 1015.3 |
| 20260505075010 | 51 | 20 | 2.0 | 6.0 | 0.00 | 0.00 | 0.00 | 75 | 1015.2 |
| 20260505074527 | 51 | 360 | 1.0 | 5.0 | 0.00 | 0.00 | 0.00 | 77 | 1015.2 |
| 20260505074012 | 50 | 360 | 1.0 | 12.0 | 0.00 | 0.00 | 0.00 | 78 | 1015.2 |
| 20260505073507 | 50 | 360 | 1.0 | 12.0 | 0.00 | 0.00 | 0.00 | 79 | 1015.3 |
| 20260505073036 | 50 | 360 | 2.0 | 8.0 | 0.00 | 0.00 | 0.00 | 78 | 1015.3 |
| 20260505072511 | 50 | 360 | 1.0 | 8.0 | 0.00 | 0.00 | 0.00 | 80 | 1015.2 |
| 20260505072009 | 49 | 360 | 2.0 | 8.0 | 0.00 | 0.00 | 0.00 | 81 | 1015.2 |
| 20260505071526 | 49 | 360 | 0.0 | 5.0 | 0.00 | 0.00 | 0.00 | 81 | 1015.2 |
| 20260505071010 | 49 | 360 | 1.0 | 5.0 | 0.00 | 0.00 | 0.00 | 82 | 1015.1 |
| 20260505070512 | 49 | 360 | 2.0 | 5.0 | 0.00 | 0.00 | 0.00 | 82 | 1015.2 |
| 20260505070022 | 48 | 360 | 2.0 | 8.0 | 0.00 | 0.00 | 0.00 | 83 | 1015.2 |
| 20260505065509 | 48 | 360 | 2.0 | 8.0 | 0.00 | 0.00 | 0.00 | 85 | 1015.3 |
| 20260505065009 | 48 | 360 | 2.0 | 5.0 | 0.00 | 0.00 | 0.00 | 86 | 1015.3 |
| 20260505064524 | 47 | 360 | 1.0 | 5.0 | 0.00 | 0.00 | 0.00 | 88 | 1015.3 |
| 20260505064010 | 47 | 360 | 1.0 | 4.0 | 0.00 | 0.00 | 0.00 | 88 | 1015.5 |
| 20260505063510 | 46 | 360 | 1.0 | 4.0 | 0.00 | 0.00 | 0.00 | 89 | 1015.4 |
| 20260505063028 | 46 | 360 | 0.0 | 6.0 | 0.00 | 0.00 | 0.00 | 90 | 1015.4 |
| 20260505062511 | 45 | 360 | 1.0 | 6.0 | 0.00 | 0.00 | 0.00 | 90 | 1015.4 |
| 20260505062012 | 45 | 360 | 1.0 | 3.0 | 0.00 | 0.00 | 0.00 | 90 | 1015.4 |
| 20260505061533 | 45 | 360 | 1.0 | 3.0 | 0.00 | 0.00 | 0.00 | 91 | 1015.4 |
| 20260505061006 | 45 | 360 | 0.0 | 3.0 | 0.00 | 0.00 | 0.00 | 91 | 1015.3 |
| 20260505060513 | 44 | 360 | 1.0 | 4.0 | 0.00 | 0.00 | 0.00 | 91 | 1015.3 |
| 20260505060026 | 44 | 360 | 2.0 | 4.0 | 0.00 | 0.00 | 0.00 | 91 | 1015.3 |
| 20260505055513 | 44 | 360 | 0.0 | 3.0 | 0.00 | 0.00 | 0.00 | 91 | 1015.3 |
| 20260505055017 | 44 | 360 | 1.0 | 3.0 | 0.00 | 0.00 | 0.00 | 91 | 1015.3 |
| 20260505054523 | 44 | 360 | 0.0 | 4.0 | 0.00 | 0.00 | 0.00 | 92 | 1015.3 |
| 20260505054014 | 43 | 360 | 0.0 | 4.0 | 0.00 | 0.00 | 0.00 | 92 | 1015.3 |
| 20260505053513 | 43 | 360 | 0.0 | 1.0 | 0.00 | 0.00 | 0.00 | 91 | 1015.2 |
| 20260505053014 | 43 | 360 | 0.0 | 2.0 | 0.00 | 0.00 | 0.00 | 91 | 1015.2 |
| 20260505052507 | 43 | 360 | 0.0 | 2.0 | 0.00 | 0.00 | 0.00 | 91 | 1015.3 |
| 20260505052009 | 43 | 360 | 0.0 | 1.0 | 0.00 | 0.00 | 0.00 | 91 | 1015.3 |
| 20260505051530 | 43 | 360 | 0.0 | 2.0 | 0.00 | 0.00 | 0.00 | 90 | 1015.3 |
| 20260505051007 | 43 | 360 | 0.0 | 3.0 | 0.00 | 0.00 | 0.00 | 91 | 1015.2 |
| 20260505050507 | 43 | 360 | 0.0 | 3.0 | 0.00 | 0.00 | 0.00 | 91 | 1015.2 |
| 20260505041511 | 43 | 360 | 0.0 | 3.0 | 0.00 | 0.00 | 0.00 | 90 | 1015.0 |
| 20260505041013 | 43 | 360 | 0.0 | 2.0 | 0.00 | 0.00 | 0.00 | 90 | 1014.9 |
| 20260505040510 | 43 | 360 | 0.0 | 2.0 | 0.00 | 0.00 | 0.00 | 89 | 1014.9 |
| 20260505040016 | 44 | 360 | 0.0 | 3.0 | 0.00 | 0.00 | 0.00 | 89 | 1014.9 |
| 20260505035510 | 44 | 360 | 0.0 | 3.0 | 0.00 | 0.00 | 0.00 | 89 | 1014.9 |
| 20260505035008 | 44 | 360 | 0.0 | 2.0 | 0.00 | 0.00 | 0.00 | 89 | 1014.9 |
| 20260505034523 | 44 | 360 | 0.0 | 2.0 | 0.00 | 0.00 | 0.00 | 89 | 1014.8 |
| 20260505034010 | 44 | 360 | 0.0 | 2.0 | 0.00 | 0.00 | 0.00 | 89 | 1014.8 |
| 20260505033507 | 44 | 360 | 0.0 | 0.0 | 0.00 | 0.00 | 0.00 | 89 | 1014.8 |
| 20260505033023 | 44 | 360 | 0.0 | 4.0 | 0.00 | 0.00 | 0.00 | 89 | 1014.9 |
| 20260505032509 | 44 | 360 | 1.0 | 5.0 | 0.00 | 0.00 | 0.00 | 89 | 1014.9 |
| 20260505032010 | 44 | 360 | 1.0 | 5.0 | 0.00 | 0.00 | 0.00 | 89 | 1014.9 |
| 20260505031535 | 44 | 360 | 0.0 | 5.0 | 0.00 | 0.00 | 0.00 | 90 | 1014.9 |
| 20260505031013 | 44 | 360 | 0.0 | 4.0 | 0.00 | 0.00 | 0.00 | 90 | 1015.0 |
| 20260505030507 | 44 | 360 | 0.0 | 4.0 | 0.00 | 0.00 | 0.00 | 90 | 1015.0 |
| 20260505030016 | 44 | 360 | 1.0 | 4.0 | 0.00 | 0.00 | 0.00 | 91 | 1014.9 |
| 20260505025507 | 44 | 360 | 0.0 | 3.0 | 0.00 | 0.00 | 0.00 | 91 | 1014.9 |
| 20260505025006 | 44 | 360 | 0.0 | 4.0 | 0.00 | 0.00 | 0.00 | 91 | 1014.8 |
| 20260505024521 | 44 | 360 | 0.0 | 4.0 | 0.00 | 0.00 | 0.00 | 92 | 1014.9 |
| 20260505024008 | 44 | 360 | 0.0 | 2.0 | 0.00 | 0.00 | 0.00 | 92 | 1014.9 |
| 20260505023506 | 44 | 360 | 0.0 | 4.0 | 0.00 | 0.00 | 0.00 | 93 | 1014.9 |
| 20260505023022 | 44 | 360 | 0.0 | 4.0 | 0.00 | 0.00 | 0.00 | 93 | 1015.0 |
| 20260505022507 | 44 | 360 | 1.0 | 2.0 | 0.00 | 0.00 | 0.00 | 94 | 1015.0 |
| 20260505022012 | 44 | 360 | 0.0 | 4.0 | 0.00 | 0.00 | 0.00 | 94 | 1015.1 |
| 20260505021529 | 44 | 360 | 0.0 | 4.0 | 0.00 | 0.00 | 0.00 | 95 | 1015.1 |